Tiempo cada hora Abergavenny

Hoy, 20 Octubre, Martes

Tiempo Temperatura Precipitaciones Viento Presión Humedad
00:00 +10°C° 0.5 mm 6 mps 734 mmHg 90%
01:00 +11°C° 0.4 mm 6 mps 733 mmHg 92%
02:00 +11°C° 0.4 mm 6 mps 733 mmHg 94%
03:00 +13°C° 0.4 mm 6 mps 732 mmHg 95%
04:00 +11°C° 0.1 mm 6 mps 732 mmHg 95%
05:00 +11°C° 0.1 mm 6 mps 732 mmHg 95%
06:00 +11°C° 0.1 mm 6 mps 732 mmHg 94%
07:00 +11°C° 0 mm 6 mps 732 mmHg 92%
08:00 +12°C° 0 mm 7 mps 733 mmHg 90%
09:00 +12°C° 0 mm 8 mps 733 mmHg 88%
10:00 +13°C° 0.1 mm 9 mps 733 mmHg 85%
11:00 +15°C° 0.1 mm 9 mps 733 mmHg 81%
12:00 +14°C° 0.1 mm 10 mps 733 mmHg 78%
13:00 +15°C° 0.1 mm 9 mps 733 mmHg 78%
14:00 +15°C° 0.1 mm 9 mps 733 mmHg 78%
15:00 +15°C° 0.1 mm 8 mps 733 mmHg 79%
16:00 +14°C° 0.1 mm 7 mps 733 mmHg 82%
17:00 +13°C° 0.1 mm 6 mps 733 mmHg 86%
18:00 +13°C° 0.1 mm 5 mps 733 mmHg 90%
19:00 +13°C° 0.2 mm 5 mps 733 mmHg 90%
20:00 +13°C° 0.2 mm 5 mps 733 mmHg 91%
21:00 +13°C° 0.2 mm 4 mps 732 mmHg 92%
22:00 +12°C° 0.2 mm 4 mps 732 mmHg 93%
23:00 +12°C° 0.2 mm 3 mps 732 mmHg 94%

Mañana, 21 Octubre, Miércoles

Tiempo Temperatura Precipitaciones Viento Presión Humedad
00:00 +12°C° 0.2 mm 3 mps 731 mmHg 95%
01:00 +13°C° 0.6 mm 2 mps 731 mmHg 96%
02:00 +13°C° 0.6 mm 2 mps 730 mmHg 97%
03:00 +13°C° 0.6 mm 1 mps 730 mmHg 98%
04:00 +12°C° 0.6 mm 1 mps 729 mmHg 98%
05:00 +12°C° 0.6 mm 1 mps 729 mmHg 98%
06:00 +12°C° 0.6 mm 1 mps 729 mmHg 98%
07:00 +12°C° 0.8 mm 1 mps 729 mmHg 97%
08:00 +13°C° 0.8 mm 1 mps 729 mmHg 96%
09:00 +13°C° 0.8 mm 1 mps 730 mmHg 94%
10:00 +12°C° 0.4 mm 3 mps 731 mmHg 94%
11:00 +12°C° 0.4 mm 4 mps 731 mmHg 94%
12:00 +12°C° 0.4 mm 5 mps 732 mmHg 94%
13:00 +13°C° 0.1 mm 5 mps 733 mmHg 89%
14:00 +13°C° 0.1 mm 5 mps 733 mmHg 85%
15:00 +13°C° 0.1 mm 6 mps 733 mmHg 81%
16:00 +12°C° 0 mm 5 mps 734 mmHg 84%
17:00 +11°C° 0 mm 4 mps 734 mmHg 88%
18:00 +10°C° 0 mm 3 mps 735 mmHg 92%
19:00 +10°C° 0 mm 3 mps 735 mmHg 92%
20:00 +9°C° 0 mm 3 mps 735 mmHg 93%
21:00 +9°C° 0 mm 3 mps 736 mmHg 94%
22:00 +9°C° 0 mm 3 mps 736 mmHg 94%
23:00 +9°C° 0 mm 3 mps 736 mmHg 94%

Pasado mañana, 22 Octubre, Jueves

Tiempo Temperatura Precipitaciones Viento Presión Humedad
00:00 +8°C° 0 mm 3 mps 736 mmHg 95%
01:00 +9°C° 0 mm 3 mps 736 mmHg 95%
02:00 +9°C° 0 mm 3 mps 736 mmHg 95%
03:00 +9°C° 0 mm 3 mps 735 mmHg 96%
04:00 +9°C° 0 mm 3 mps 735 mmHg 96%
05:00 +9°C° 0 mm 3 mps 735 mmHg 96%
06:00 +10°C° 0 mm 3 mps 735 mmHg 96%
07:00 +10°C° 0.2 mm 4 mps 735 mmHg 94%
08:00 +11°C° 0.2 mm 4 mps 735 mmHg 93%
09:00 +11°C° 0.2 mm 4 mps 734 mmHg 92%
10:00 +12°C° 0.5 mm 4 mps 734 mmHg 89%
11:00 +13°C° 0.5 mm 4 mps 734 mmHg 87%
12:00 +13°C° 0.5 mm 4 mps 734 mmHg 84%
13:00 +13°C° 0.2 mm 4 mps 734 mmHg 83%
14:00 +13°C° 0.2 mm 4 mps 734 mmHg 83%
15:00 +14°C° 0.2 mm 4 mps 734 mmHg 83%
16:00 +12°C° 0.1 mm 4 mps 735 mmHg 85%
17:00 +9°C° 0.1 mm 5 mps 735 mmHg 88%
18:00 +8°C° 0.1 mm 5 mps 736 mmHg 90%
19:00 +8°C° 0 mm 5 mps 737 mmHg 91%
20:00 +8°C° 0 mm 5 mps 737 mmHg 91%
21:00 +8°C° 0 mm 5 mps 738 mmHg 91%
22:00 +7°C° 0 mm 5 mps 739 mmHg 90%
23:00 +7°C° 0 mm 6 mps 739 mmHg 89%

23 Octubre, Viernes

Tiempo Temperatura Precipitaciones Viento Presión Humedad
00:00 +7°C° 0 mm 6 mps 740 mmHg 88%
01:00 +7°C° 0 mm 5 mps 740 mmHg 87%
02:00 +6°C° 0 mm 5 mps 740 mmHg 87%
03:00 +6°C° 0 mm 4 mps 740 mmHg 87%
04:00 +7°C° 0 mm 5 mps 740 mmHg 87%
05:00 +8°C° 0 mm 5 mps 740 mmHg 88%
06:00 +8°C° 0 mm 6 mps 740 mmHg 88%
07:00 +9°C° 0.8 mm 7 mps 740 mmHg 89%
08:00 +9°C° 0.8 mm 8 mps 740 mmHg 89%
09:00 +9°C° 0.8 mm 8 mps 740 mmHg 90%
10:00 +9°C° 0.6 mm 8 mps 740 mmHg 84%
11:00 +10°C° 0.6 mm 7 mps 740 mmHg 78%
12:00 +10°C° 0.6 mm 7 mps 741 mmHg 72%
13:00 +9°C° 0.1 mm 6 mps 741 mmHg 73%
14:00 +9°C° 0.1 mm 6 mps 741 mmHg 73%
15:00 +9°C° 0.1 mm 6 mps 742 mmHg 74%
16:00 +8°C° 0 mm 5 mps 742 mmHg 75%
17:00 +7°C° 0 mm 5 mps 743 mmHg 77%
18:00 +5°C° 0 mm 4 mps 743 mmHg 78%
19:00 +5°C° 0 mm 4 mps 744 mmHg 80%
20:00 +5°C° 0 mm 3 mps 744 mmHg 82%
21:00 +5°C° 0 mm 3 mps 745 mmHg 83%
22:00 +5°C° 0 mm 3 mps 745 mmHg 85%
23:00 +5°C° 0 mm 3 mps 745 mmHg 86%

24 Octubre, Sábado

Tiempo Temperatura Precipitaciones Viento Presión Humedad
00:00 +5°C° 0 mm 3 mps 745 mmHg 87%
01:00 +5°C° 0 mm 3 mps 745 mmHg 87%
02:00 +6°C° 0 mm 4 mps 745 mmHg 88%
03:00 +6°C° 0 mm 4 mps 744 mmHg 88%
04:00 +6°C° 0 mm 5 mps 744 mmHg 87%
05:00 +7°C° 0 mm 5 mps 744 mmHg 86%
06:00 +7°C° 0 mm 5 mps 744 mmHg 86%
07:00 +8°C° 0 mm 6 mps 744 mmHg 85%
08:00 +8°C° 0 mm 6 mps 744 mmHg 84%
09:00 +9°C° 0 mm 7 mps 743 mmHg 83%
10:00 +10°C° 0 mm 7 mps 743 mmHg 82%
11:00 +10°C° 0 mm 8 mps 743 mmHg 81%
12:00 +11°C° 0 mm 8 mps 742 mmHg 79%
13:00 +11°C° 0.1 mm 8 mps 742 mmHg 84%
14:00 +11°C° 0.1 mm 7 mps 741 mmHg 88%
15:00 +12°C° 0.1 mm 7 mps 740 mmHg 93%
16:00 +12°C° 0.1 mm 7 mps 740 mmHg 92%
17:00 +12°C° 0.1 mm 8 mps 740 mmHg 91%
18:00 +12°C° 0.1 mm 8 mps 740 mmHg 91%
19:00 +12°C° 0.1 mm 8 mps 739 mmHg 90%
20:00 +12°C° 0.1 mm 8 mps 739 mmHg 90%
21:00 +12°C° 0.1 mm 8 mps 739 mmHg 89%
22:00 +12°C° 0.1 mm 9 mps 738 mmHg 89%
23:00 +12°C° 0.1 mm 9 mps 738 mmHg 89%

25 Octubre, Domingo

Tiempo Temperatura Precipitaciones Viento Presión Humedad
00:00 +12°C° 0.1 mm 10 mps 737 mmHg 89%
01:00 +12°C° 0.1 mm 10 mps 736 mmHg 89%
02:00 +12°C° 0.1 mm 10 mps 735 mmHg 89%
03:00 +12°C° 0.1 mm 10 mps 735 mmHg 88%
04:00 +11°C° 0.5 mm 10 mps 735 mmHg 88%
05:00 +11°C° 0.5 mm 10 mps 734 mmHg 88%
06:00 +11°C° 0.5 mm 10 mps 734 mmHg 88%
07:00 +11°C° 1 mm 8 mps 734 mmHg 90%
08:00 +10°C° 1 mm 6 mps 735 mmHg 91%
09:00 +10°C° 1 mm 4 mps 735 mmHg 92%
10:00 +10°C° 1.1 mm 3 mps 735 mmHg 92%
11:00 +10°C° 1.1 mm 3 mps 735 mmHg 92%
12:00 +10°C° 1.1 mm 3 mps 735 mmHg 91%
13:00 +10°C° 0.2 mm 4 mps 735 mmHg 88%
14:00 +10°C° 0.2 mm 4 mps 735 mmHg 85%
15:00 +10°C° 0.2 mm 5 mps 736 mmHg 81%
16:00 +9°C° 0 mm 5 mps 736 mmHg 84%
17:00 +8°C° 0 mm 4 mps 736 mmHg 87%
18:00 +7°C° 0 mm 4 mps 737 mmHg 89%
19:00 +7°C° 0 mm 4 mps 737 mmHg 89%
20:00 +8°C° 0 mm 3 mps 738 mmHg 89%
21:00 +7°C° 0 mm 3 mps 738 mmHg 89%
22:00 +7°C° 0 mm 3 mps 738 mmHg 90%
23:00 +7°C° 0 mm 3 mps 739 mmHg 91%

26 Octubre, Lunes

Tiempo Temperatura Precipitaciones Viento Presión Humedad
00:00 +7°C° 0 mm 3 mps 739 mmHg 91%
01:00 +5°C° 0 mm 3 mps 739 mmHg 92%
02:00 +5°C° 0 mm 3 mps 739 mmHg 92%
03:00 +6°C° 0 mm 2 mps 740 mmHg 92%
04:00 +6°C° 0 mm 2 mps 740 mmHg 92%
05:00 +6°C° 0 mm 2 mps 740 mmHg 92%
06:00 +6°C° 0 mm 2 mps 740 mmHg 91%
07:00 +7°C° 0 mm 3 mps 741 mmHg 89%
08:00 +7°C° 0 mm 5 mps 741 mmHg 87%
09:00 +8°C° 0 mm 6 mps 741 mmHg 86%
10:00 +9°C° 0 mm 7 mps 741 mmHg 82%
11:00 +10°C° 0 mm 7 mps 741 mmHg 78%
12:00 +10°C° 0 mm 8 mps 741 mmHg 74%
13:00 +10°C° 0 mm 8 mps 741 mmHg 76%
14:00 +10°C° 0 mm 8 mps 741 mmHg 79%
15:00 +9°C° 0 mm 7 mps 742 mmHg 81%
16:00 +9°C° 0.1 mm 7 mps 742 mmHg 84%
17:00 +9°C° 0.1 mm 7 mps 742 mmHg 86%
18:00 +9°C° 0.1 mm 6 mps 742 mmHg 88%
19:00 +9°C° 0 mm 6 mps 742 mmHg 89%
20:00 +9°C° 0 mm 6 mps 742 mmHg 90%
21:00 +9°C° 0 mm 6 mps 742 mmHg 91%
22:00 +10°C° 0 mm 7 mps 741 mmHg 92%
23:00 +10°C° 0 mm 8 mps 741 mmHg 92%
Mostrar más

Necesitamos Su Consentimiento

Meteoprog y nuestros Proveedores de Servicios pueden almacenar y acceder a sus datos personales como cookies, identificadores de dispositivo u otras tecnologías similares de su dispositivo y procesar dichos datos para personalizar contenido y anuncios, además de ofrecer funciones de redes sociales y analizar el tráfico.

  • Almacenar y/o acceder a información en su dispositivo

    Se puede almacenar o acceder a cookies, identificadores de dispositivo u otra información de su dispositivo para los fines anteriormente indicados.

  • Anuncios y contenido personalizados, medición de anuncios y contenido, percepciones del público, y desarrollo de productos

    Los anuncios y el contenido pueden personalizarse en base a su perfil. Se pueden añadir más datos para personalizar mejor los anuncios y contenidos. Se puede medir el rendimiento de los anuncios y contenidos. Se puede obtener la percepción sobre el público que ha visto los anuncios y contenidos. Dichos datos pueden usarse para desarrollar o mejorar la experiencia del usuario, sistemas y software.

Al hacer clic en ‘Estoy De Acuerdo’ usted permitirá el uso de las cookies, identificadores de dispositivo, balizas web u otras tecnologías similares indicadas. Su configuración puede cambiarse desde el navegador de su dispositivo.

Para ciertos fines, los intereses legítimos pueden ser considerados por encima del consentimiento. Puede leer más sobre ello en nuestra Política de Privacidad y Cookies.